This is the latest recevied weather packets stored in our database for station/object VE7GEL. If no packets are shown the sender has not sent any weather packets the latest 10 day(s).
| Time | Temp. | Humidity | Pressure | Rain* | Wind** | Luminosity | Snow |
|---|---|---|---|---|---|---|---|
| 1777565011 | 12.22° C | 84% | 1021.4 hPa | 0 mm | - | 38 W/m² | - |
| 1777564107 | 12.22° C | 87% | 1021.5 hPa | 0 mm | - | 31 W/m² | - |
| 1777563207 | 11.67° C | 89% | 1021.7 hPa | 0 mm | - | 26 W/m² | - |
| 1777562305 | 11.67° C | 91% | 1021.7 hPa | 0 mm | - | 27 W/m² | - |
| 1777562103 | 11.67° C | 91% | 1022 hPa | 0 mm | - | 27 W/m² | - |
| 1777561406 | 11.11° C | 91% | 1021.7 hPa | 0 mm | - | 27 W/m² | - |
| 1777560503 | 10.56° C | 91% | 1021.7 hPa | 0 mm | - | 24 W/m² | - |
| 1777560449 | 10.56° C | 91% | 1022 hPa | 0 mm | - | 24 W/m² | - |
| 1777560303 | 10.56° C | 91% | 1022 hPa | 0 mm | - | 24 W/m² | - |
| 1777559602 | 10.56° C | 91% | 1021.6 hPa | 0 mm | - | 24 W/m² | - |
| 1777558700 | 10.56° C | 92% | 1021.4 hPa | 0 mm | - | 21 W/m² | - |
| 1777557800 | 10° C | 92% | 1021.4 hPa | 0 mm | - | 17 W/m² | - |
| 1777556899 | 10° C | 93% | 1021.3 hPa | 0 mm | - | 12 W/m² | - |
| 1777555998 | 10° C | 93% | 1021.2 hPa | 0 mm | - | 9 W/m² | - |
| 1777555098 | 10° C | 92% | 1021.2 hPa | 0 mm | - | 6 W/m² | - |
| 1777554903 | 10° C | 92% | 1021.5 hPa | 0 mm | - | 5 W/m² | - |
| 1777554198 | 10° C | 93% | 1021 hPa | 0 mm | - | 3 W/m² | - |
| 1777554002 | 10° C | 93% | 1021.4 hPa | 0 mm | - | 2 W/m² | - |
| 1777553292 | 10° C | 93% | 1021.1 hPa | 0 mm | - | 0 W/m² | - |
| 1777553102 | 10° C | 93% | 1021.4 hPa | 0 mm | - | 0 W/m² | - |
| 1777552394 | 10° C | 93% | 1021.1 hPa | 0 mm | - | 0 W/m² | - |
| 1777551495 | 10° C | 93% | 1021.2 hPa | 0 mm | - | 0 W/m² | - |
| 1777551302 | 10° C | 93% | 1021.6 hPa | 0 mm | - | 0 W/m² | - |
| 1777550593 | 10° C | 93% | 1021.4 hPa | 0 mm | - | 0 W/m² | - |
| 1777550406 | 10° C | 93% | 1021.7 hPa | 0 mm | - | 0 W/m² | - |
* Rain latest hour (hover to see other rain measurements)
** Current wind speed in m/s (hover to see current wind gust speed)